TimeMDT,TemperatureF,Dew PointF,Humidity,Sea Level PressureIn,VisibilityMPH,Wind Direction,Wind SpeedMPH,Gust SpeedMPH,PrecipitationIn,Events,Conditions,WindDirDegrees,DateUTC
12:53 AM,30.0,25.0,82,30.36,10.0,East,3.5,-,N/A,,Overcast,90,2012-10-26 06:53:00
1:53 AM,28.9,25.0,85,30.35,10.0,East,5.8,-,N/A,,Overcast,80,2012-10-26 07:53:00
2:53 AM,28.9,25.0,85,30.37,10.0,East,3.5,-,N/A,,Overcast,100,2012-10-26 08:53:00
3:53 AM,28.0,25.0,88,30.39,10.0,SE,3.5,-,N/A,,Overcast,130,2012-10-26 09:53:00
4:53 AM,28.0,25.0,88,30.40,2.5,ESE,5.8,-,0.00,Snow,Light Snow,120,2012-10-26 10:53:00
5:06 AM,28.4,24.8,86,30.37,1.5,ESE,4.6,-,0.00,Snow,Light Snow,120,2012-10-26 11:06:00
5:30 AM,28.4,24.8,86,30.38,2.0,ESE,6.9,-,0.00,Snow,Light Snow,110,2012-10-26 11:30:00
5:53 AM,27.0,25.0,92,30.46,2.5,East,4.6,-,0.00,Snow,Light Snow,100,2012-10-26 11:53:00
6:08 AM,26.6,24.8,93,30.40,1.5,East,4.6,-,0.01,Snow,Light Snow,100,2012-10-26 12:08:00
6:17 AM,28.4,24.8,86,30.41,1.2,East,4.6,-,0.01,Snow,Light Snow,100,2012-10-26 12:17:00
7:05 AM,26.6,24.8,93,30.42,1.5,East,4.6,-,0.00,Snow,Light Snow,90,2012-10-26 13:05:00
7:13 AM,26.6,24.8,93,30.42,2.0,East,6.9,-,0.00,Snow,Light Snow,90,2012-10-26 13:13:00
7:53 AM,27.0,25.0,92,30.51,1.8,East,5.8,-,0.01,Snow,Light Snow,100,2012-10-26 13:53:00
8:06 AM,26.6,24.8,93,30.44,2.0,ESE,5.8,-,0.00,Snow,Light Snow,110,2012-10-26 14:06:00
8:19 AM,26.6,24.8,93,30.45,2.0,ESE,4.6,-,0.00,Snow,Light Snow,110,2012-10-26 14:19:00
8:48 AM,26.6,24.8,93,30.44,3.0,East,6.9,-,0.00,Snow,Light Snow,80,2012-10-26 14:48:00
9:01 AM,26.6,24.8,93,30.45,6.0,East,5.8,-,N/A,,Overcast,90,2012-10-26 15:01:00
9:21 AM,28.4,24.8,86,30.45,10.0,ESE,5.8,-,N/A,,Overcast,110,2012-10-26 15:21:00
9:32 AM,26.6,24.8,93,30.45,10.0,ESE,5.8,-,N/A,,Overcast,120,2012-10-26 15:32:00
9:53 AM,27.0,24.1,89,30.54,10.0,ESE,5.8,-,N/A,,Overcast,120,2012-10-26 15:53:00
10:53 AM,28.9,25.0,85,30.55,10.0,Calm,Calm,-,N/A,,Overcast,0,2012-10-26 16:53:00
11:32 AM,30.2,26.6,86,30.47,10.0,Calm,Calm,-,N/A,,Overcast,0,2012-10-26 17:32:00
11:53 AM,32.0,26.1,79,30.54,10.0,Calm,Calm,-,N/A,,Overcast,0,2012-10-26 17:53:00
12:29 PM,32.0,26.6,80,30.46,10.0,Calm,Calm,-,N/A,,Overcast,0,2012-10-26 18:29:00
12:53 PM,32.0,26.1,79,30.52,10.0,West,4.6,-,N/A,,Overcast,270,2012-10-26 18:53:00
1:53 PM,32.0,27.0,82,30.49,10.0,SW,5.8,-,N/A,,Overcast,230,2012-10-26 19:53:00
2:05 PM,32.0,26.6,80,30.41,10.0,SSW,5.8,-,N/A,,Overcast,210,2012-10-26 20:05:00
2:12 PM,33.8,28.4,81,30.41,10.0,SSW,5.8,-,N/A,,Overcast,210,2012-10-26 20:12:00
2:20 PM,33.8,28.4,81,30.41,10.0,WSW,5.8,-,N/A,,Overcast,240,2012-10-26 20:20:00
2:53 PM,33.1,26.1,75,30.46,10.0,SSW,4.6,-,N/A,,Overcast,210,2012-10-26 20:53:00
3:01 PM,33.8,26.6,75,30.40,10.0,SW,5.8,-,N/A,,Overcast,230,2012-10-26 21:01:00
3:34 PM,33.8,26.6,75,30.38,10.0,West,5.8,-,N/A,,Overcast,280,2012-10-26 21:34:00
3:48 PM,33.8,26.6,75,30.38,10.0,Calm,Calm,-,N/A,,Mostly Cloudy,0,2012-10-26 21:48:00
3:53 PM,33.1,27.0,78,30.44,10.0,Calm,Calm,-,N/A,,Mostly Cloudy,0,2012-10-26 21:53:00
4:53 PM,34.0,27.0,75,30.42,10.0,SW,6.9,-,N/A,,Overcast,230,2012-10-26 22:53:00
5:53 PM,33.1,26.1,75,30.42,10.0,WSW,5.8,-,N/A,,Overcast,250,2012-10-26 23:53:00
6:53 PM,32.0,25.0,75,30.42,10.0,South,9.2,-,N/A,,Overcast,170,2012-10-27 00:53:00
7:37 PM,28.4,24.8,86,30.34,10.0,South,8.1,-,N/A,,Scattered Clouds,190,2012-10-27 01:37:00
7:53 PM,28.0,24.1,85,30.42,10.0,SSW,6.9,-,N/A,,Clear,210,2012-10-27 01:53:00
8:53 PM,25.0,23.0,92,30.42,10.0,SW,4.6,-,N/A,,Clear,230,2012-10-27 02:53:00
9:53 PM,24.1,21.9,91,30.40,10.0,North,-9999.0,-,N/A,,Clear,0,2012-10-27 03:53:00
10:53 PM,25.0,23.0,92,30.38,10.0,SSW,11.5,-,N/A,,Clear,200,2012-10-27 04:53:00
11:53 PM,26.1,24.1,92,30.35,9.0,SSW,15.0,-,N/A,,Scattered Clouds,200,2012-10-27 05:53:00